FENGYUN 1C DEB

Satellite information

Favourite Embed

Satellite Type and Status

DEBRISIN ORBIT

Key statistics

Satellite FENGYUN 1C DEB at a glance.

Uptime

9715

Days in orbit

Revolutions

≈ 14.5

Per day

Orbit

SSO

Sun Synchronous Orbit

Inclination

98.8

Latest

Satellite identification and parameters

Extended collection of information and parameters for FENGYUN 1C DEB.

Object identification

Identified? True

Debris? True

Object name: FENGYUN 1C DEB

International designator: 1999-025CCL

Object number (NORAD): 31678

Object ID (CCSDS): 31678

Country: PEOPLES REPUBLIC OF CHINA (PRC)

Current information (Y/N): Y

RCS size: SMALL

Orbital parameters

Period: 99.098 minutes

Inclination: 98.8002 deg

SMA: 7093.646 km

Apoapsis: 899.661 km

Periapsis: 531.361 km

RAAN: 90.4904 deg

Eccentricy: 0.02595985

Argument of periapsis: 43.5795 deg

Mean anomaly: 318.5589 deg

Mean motion: 14.53109934 rev/day

Mean motion (dot): 0.00008539 rev/day2

B* drag term: 0.0013282035 1/REarth

Two-line elements (TLE)

Creation date: Dec. 8, 2025, 3:46 a.m.

Reference frame: TEME

Reference center: EARTH

Epoch: Dec. 7, 2025, 1:45 p.m. UTC

TLE line 0: 0 FENGYUN 1C DEB

TLE line 1: 1 31678U 99025CCL 25341.57298091 .00008539 00000-0 13282-2 0 9999

TLE line 2: 2 31678 98.8002 90.4904 0259599 43.5795 318.5589 14.53109934967642

Live tracking on map

Real-time ground track for satellite FENGYUN 1C DEB.

In-orbit conjunctions

A list of the most updated potential collisions computed for object FENGYUN 1C DEB.

Target Orbit TCA Probability of collision Miss distance Type
SL-16 R/B LEO 2025-05-26 00:17:13 0.0001132795 253.0 (m) ROCKET BODY
SL-8 DEB * LEO 2024-11-08 09:12:50 0.0002141707 919.0 (m) DEBRIS
SAUDISAT 1B LEO 2024-09-28 16:26:03 0.0005333251 272.0 (m) PAYLOAD
SCOUT A R/B SSO 2024-06-02 10:56:11 0.0002182179 167.0 (m) ROCKET BODY

Associated space launch

Chinese polar orbiting meteorological satellite

FENGYUN 1C DEB was lifted into orbit during the mission ‘Long March 4B | Feng Yun 1C’, on board a Long March 4B space rocket.

The launch took place on May 10, 1999, 1:33 a.m. from Launch Complex 7.

For more information about the launch, click the button.

Launch to space Long March 4B | Feng Yun 1C
Long March 4B | Feng Yun 1C

Agency: N/A

Status: Launch Successful

Launch date: May 10, 1999, 1:33 a.m. UTC

Rocket: Long March 4B

Launch pad: Launch Complex 7

Location: Taiyuan Satellite Launch Center, People's Republic of China

...

Latest news about this satellite

There are no fresh news available about this satellite. Check back as we update our databases every day.


Newsletter sign-up

Weekly statistics, charts and insights to help you stay on top of the space industry.